This is the latest recevied weather packets stored in our database for station/object DL9LAF-4. If no packets are shown the sender has not sent any weather packets the latest 10 day(s).
| Time | Temp. | Humidity | Pressure | Rain* | Wind** | Luminosity | Snow |
|---|---|---|---|---|---|---|---|
| 1777459552 | 15.56° C | 45% | 1008.9 hPa | 0 mm | - | - | - |
| 1777458952 | 15.56° C | 45% | 1008.9 hPa | 0 mm | - | - | - |
| 1777458352 | 15° C | 46% | 1009 hPa | 0 mm | - | - | - |
| 1777457752 | 15° C | 45% | 1009 hPa | 0 mm | - | - | - |
| 1777457152 | 14.44° C | 46% | 1009 hPa | 0 mm | - | - | - |
| 1777456552 | 13.89° C | 47% | 1009.2 hPa | 0 mm | - | - | - |
| 1777455952 | 13.89° C | 48% | 1009.2 hPa | 0 mm | - | - | - |
| 1777455352 | 13.89° C | 49% | 1009.2 hPa | 0 mm | - | - | - |
| 1777454752 | 13.33° C | 52% | 1009.2 hPa | 0 mm | - | - | - |
| 1777454152 | 12.78° C | 52% | 1009.2 hPa | 0 mm | - | - | - |
| 1777453552 | 12.78° C | 54% | 1009.2 hPa | 0 mm | - | - | - |
| 1777452952 | 12.22° C | 56% | 1009.2 hPa | 0 mm | - | - | - |
| 1777452352 | 11.67° C | 57% | 1009.2 hPa | 0 mm | - | - | - |
| 1777451752 | 11.67° C | 58% | 1009.2 hPa | 0 mm | - | - | - |
| 1777451152 | 11.11° C | 63% | 1009.2 hPa | 0 mm | - | - | - |
| 1777450552 | 10.56° C | 64% | 1009.2 hPa | 0 mm | - | - | - |
| 1777449952 | 10° C | 66% | 1009.2 hPa | 0 mm | - | - | - |
| 1777449352 | 10° C | 68% | 1009.2 hPa | 0 mm | - | - | - |
| 1777448752 | 9.44° C | 70% | 1009.2 hPa | 0 mm | - | - | - |
| 1777448152 | 8.89° C | 72% | 1009.2 hPa | 0 mm | - | - | - |
| 1777447552 | 8.33° C | 73% | 1009 hPa | 0 mm | - | - | - |
| 1777446952 | 7.78° C | 75% | 1009 hPa | 0 mm | - | - | - |
| 1777446352 | 7.78° C | 76% | 1009 hPa | 0 mm | - | - | - |
| 1777445752 | 7.22° C | 77% | 1008.9 hPa | 0 mm | - | - | - |
| 1777445152 | 6.67° C | 78% | 1008.9 hPa | 0 mm | - | - | - |
* Rain latest hour (hover to see other rain measurements)
** Current wind speed in m/s (hover to see current wind gust speed)